QPF
0.03 0.03 0.03 0.03 0.02 0.01 0.01 0.01 0.01 0.02 0.02 0.01 0.01 0.00 0.00 0.00 0.00 0.00 0.00 0.00 0.00 0.00 0.00 0.00 0.00 0.00 0.00 0.00 0.00 0.00 0.00 0.00 0.00 0.00 0.00 0.00 0.00 0.00 0.00 0.00 0.01 0.01 0.01
0.03 0.03 0.02 0.03 0.03 0.01 0.01 0.01 0.01 0.02 0.02 0.02 0.01 0.01 0.00 0.00 0.00 0.00 0.00 0.00 0.00 0.00 0.00 0.00 0.00 0.00 0.00 0.00 0.00 0.00 0.00 0.00 0.01 0.00 0.00 0.00 0.00 0.00 0.00 0.01 0.01 0.01 0.02
0.02 0.03 0.02 0.02 0.02 0.02 0.01 0.01 0.00 0.01 0.02 0.02 0.02 0.01 0.01 0.00 0.00 0.00 0.00 0.00 0.00 0.00 0.00 0.00 0.00 0.00 0.00 0.00 0.00 0.00 0.00 0.01 0.01 0.01 0.01 0.01 0.00 0.00 0.01 0.01 0.01 0.01 0.01
0.01 0.02 0.02 0.02 0.02 0.02 0.01 0.01 0.00 0.01 0.01 0.02 0.02 0.01 0.01 0.00 0.00 0.00 0.00 0.00 0.00 0.00 0.00 0.00 0.00 0.00 0.00 0.00 0.00 0.00 0.01 0.01 0.01 0.01 0.01 0.01 0.01 0.01 0.01 0.01 0.01 0.01 0.01
0.01 0.01 0.02 0.02 0.02 0.01 0.01 0.01 0.00 0.00 0.01 0.02 0.03 0.02 0.01 0.00 0.00 0.00 0.00 0.00 0.00 0.00 0.00 0.00 0.00 0.00 0.00 0.00 0.00 0.00 0.01 0.01 0.01 0.01 0.01 0.01 0.00 0.00 0.01 0.01 0.01 0.01 0.01
0.00 0.01 0.01 0.01 0.01 0.01 0.01 0.01 0.00 0.00 0.01 0.01 0.02 0.02 0.01 0.00 0.00 0.00 0.00 0.00 0.00 0.00 0.00 0.00 0.00 0.00 0.00 0.00 0.00 0.00 0.00 0.00 0.01 0.01 0.01 0.01 0.01 0.01 0.01 0.01 0.01 0.01 0.01
0.01 0.01 0.01 0.01 0.01 0.01 0.01 0.01 0.00 0.00 0.00 0.01 0.01 0.02 0.02 0.01 0.00 0.00 0.00 0.00 0.00 0.00 0.00 0.00 0.00 0.00 0.00 0.00 0.00 0.00 0.00 0.01 0.01 0.01 0.01 0.01 0.01 0.01 0.02 0.02 0.02 0.02 0.02
0.02 0.01 0.01 0.01 0.01 0.01 0.01 0.01 0.00 0.00 0.01 0.01 0.01 0.02 0.02 0.02 0.01 0.00 0.00 0.00 0.00 0.00 0.00 0.00 0.00 0.00 0.00 0.00 0.01 0.01 0.01 0.01 0.01 0.01 0.01 0.01 0.01 0.01 0.02 0.02 0.02 0.02 0.02
0.01 0.01 0.02 0.02 0.01 0.01 0.01 0.01 0.01 0.01 0.01 0.01 0.01 0.01 0.01 0.02 0.02 0.01 0.00 0.00 0.00 0.00 0.00 0.00 0.00 0.00 0.00 0.01 0.01 0.01 0.01 0.01 0.01 0.01 0.01 0.01 0.01 0.02 0.02 0.02 0.02 0.02 0.02
0.01 0.01 0.01 0.01 0.02 0.02 0.01 0.01 0.01 0.01 0.01 0.01 0.02 0.02 0.01 0.01 0.01 0.01 0.01 0.00 0.00 0.00 0.00 0.00 0.00 0.00 0.01 0.01 0.01 0.01 0.01 0.01 0.01 0.01 0.01 0.01 0.01 0.01 0.02 0.02 0.04 0.04 0.04
0.02 0.01 0.00 0.00 0.01 0.01 0.02 0.01 0.01 0.01 0.01 0.01 0.01 0.02 0.02 0.01 0.01 0.01 0.01 0.00 0.00 0.00 0.00 0.00 0.00 0.00 0.01 0.01 0.01 0.01 0.01 0.01 0.01 0.01 0.01 0.01 0.01 0.01 0.01 0.02 0.03 0.04 0.04
0.02 0.01 0.00 0.00 0.00 0.01 0.01 0.02 0.02 0.01 0.01 0.01 0.01 0.01 0.01 0.02 0.01 0.01 0.01 0.01 0.00 0.00 0.00 0.00 0.00 0.00 0.00 0.01 0.01 0.01 0.01 0.01 0.00 0.00 0.00 0.00 0.01 0.01 0.02 0.02 0.02 0.03 0.03
0.02 0.01 0.01 0.00 0.00 0.00 0.01 0.01 0.02 0.02 0.02 0.01 0.01 0.01 0.01 0.01 0.01 0.01 0.01 0.00 0.01 0.01 0.00 0.00 0.00 0.00 0.00 0.01 0.01 0.01 0.01 0.00 0.00 0.00 0.00 0.00 0.01 0.01 0.02 0.02 0.02 0.02 0.02
0.01 0.01 0.01 0.01 0.01 0.01 0.01 0.01 0.01 0.02 0.02 0.02 0.01 0.01 0.01 0.01 0.01 0.01 0.01 0.00 0.00 0.00 0.01 0.01 0.00 0.00 0.01 0.01 0.01 0.01 0.00 0.00 0.00 0.00 0.00 0.00 0.00 0.01 0.01 0.01 0.02 0.01 0.02
0.01 0.00 0.01 0.01 0.01 0.01 0.01 0.01 0.01 0.01 0.02 0.02 0.02 0.01 0.01 0.01 0.00 0.01 0.01 0.01 0.00 0.00 0.01 0.01 0.01 0.01 0.01 0.00 0.00 0.00 0.00 0.00 0.00 0.00 0.00 0.00 0.01 0.01 0.01 0.02 0.02 0.01 0.02
0.01 0.00 0.00 0.01 0.01 0.01 0.01 0.01 0.01 0.01 0.01 0.02 0.02 0.02 0.02 0.01 0.01 0.00 0.01 0.01 0.01 0.01 0.01 0.01 0.01 0.01 0.01 0.00 0.01 0.01 0.01 0.00 0.00 0.00 0.01 0.01 0.01 0.01 0.01 0.01 0.02 0.01 0.01
0.01 0.01 0.00 0.00 0.01 0.01 0.01 0.01 0.01 0.01 0.01 0.01 0.02 0.02 0.02 0.02 0.01 0.01 0.01 0.01 0.01 0.01 0.01 0.01 0.01 0.01 0.01 0.01 0.01 0.01 0.01 0.01 0.01 0.01 0.01 0.01 0.01 0.01 0.01 0.01 0.01 0.01 0.01
0.01 0.01 0.01 0.00 0.00 0.01 0.01 0.01 0.01 0.01 0.01 0.01 0.01 0.02 0.02 0.02 0.02 0.02 0.01 0.01 0.01 0.01 0.01 0.01 0.01 0.01 0.01 0.01 0.01 0.01 0.01 0.01 0.01 0.01 0.01 0.01 0.01 0.01 0.01 0.01 0.01 0.01 0.02
0.01 0.01 0.01 0.01 0.00 0.00 0.01 0.01 0.01 0.01 0.01 0.02 0.02 0.02 0.02 0.01 0.01 0.02 0.02 0.01 0.01 0.01 0.01 0.01 0.01 0.01 0.01 0.01 0.01 0.01 0.01 0.01 0.01 0.01 0.01 0.01 0.01 0.01 0.01 0.01 0.01 0.01 0.01
0.02 0.02 0.02 0.01 0.01 0.01 0.01 0.01 0.01 0.01 0.02 0.02 0.02 0.02 0.01 0.01 0.01 0.01 0.01 0.01 0.01 0.01 0.01 0.01 0.01 0.01 0.01 0.01 0.01 0.01 0.01 0.01 0.01 0.01 0.01 0.01 0.01 0.01 0.01 0.01 0.01 0.02 0.02
0.03 0.03 0.03 0.02 0.02 0.01 0.01 0.01 0.01 0.01 0.02 0.02 0.02 0.01 0.01 0.01 0.01 0.01 0.01 0.01 0.02 0.02 0.02 0.01 0.01 0.01 0.01 0.01 0.01 0.01 0.01 0.01 0.01 0.01 0.01 0.01 0.01 0.01 0.01 0.01 0.02 0.02 0.02
0.03 0.03 0.04 0.04 0.03 0.02 0.02 0.02 0.02 0.02 0.02 0.02 0.02 0.01 0.01 0.01 0.01 0.01 0.01 0.01 0.01 0.01 0.02 0.02 0.01 0.01 0.01 0.01 0.02 0.01 0.01 0.01 0.01 0.01 0.01 0.01 0.01 0.01 0.01 0.01 0.02 0.02 0.02
0.03 0.03 0.03 0.03 0.03 0.03 0.02 0.02 0.02 0.02 0.02 0.01 0.01 0.01 0.01 0.01 0.01 0.01 0.01 0.01 0.01 0.01 0.01 0.01 0.01 0.01 0.01 0.01 0.01 0.02 0.02 0.01 0.01 0.01 0.01 0.01 0.01 0.01 0.01 0.02 0.02 0.02 0.02
0.03 0.03 0.03 0.03 0.02 0.02 0.02 0.02 0.02 0.01 0.01 0.01 0.01 0.01 0.01 0.01 0.01 0.01 0.01 0.00 0.01 0.01 0.01 0.01 0.01 0.01 0.01 0.01 0.01 0.01 0.01 0.01 0.01 0.02 0.02 0.02 0.02 0.01 0.01 0.02 0.02 0.02 0.02
0.03 0.03 0.03 0.02 0.02 0.02 0.01 0.01 0.01 0.01 0.01 0.01 0.01 0.01 0.01 0.01 0.01 0.01 0.01 0.01 0.01 0.01 0.01 0.01 0.01 0.01 0.01 0.01 0.01 0.01 0.01 0.01 0.01 0.02 0.02 0.02 0.02 0.01 0.01 0.02 0.02 0.02 0.02
0.02 0.02 0.02 0.02 0.02 0.01 0.01 0.01 0.01 0.01 0.01 0.01 0.01 0.01 0.01 0.01 0.01 0.01 0.01 0.00 0.01 0.01 0.01 0.01 0.01 0.01 0.01 0.01 0.00 0.00 0.01 0.01 0.01 0.01 0.02 0.02 0.01 0.01 0.01 0.02 0.01 0.02 0.02
MSLP
1021.81 1022.07 1022.36 1022.64 1022.89 1023.08 1023.20 1023.24 1023.22 1023.15 1023.05 1022.91 1022.76 1022.61 1022.44 1022.27 1022.10 1021.93 1021.77 1021.62 1021.48 1021.36 1021.23 1021.10 1020.94 1020.73 1020.43 1020.04 1019.54 1018.94 1018.24 1017.47 1016.67 1015.85 1015.04 1014.27 1013.54 1012.85 1012.20 1011.54 1010.88 1010.17 1009.40
1021.59 1021.87 1022.17 1022.47 1022.72 1022.92 1023.04 1023.09 1023.08 1023.02 1022.93 1022.81 1022.69 1022.56 1022.41 1022.26 1022.09 1021.90 1021.71 1021.51 1021.31 1021.12 1020.93 1020.74 1020.54 1020.30 1020.01 1019.65 1019.19 1018.65 1018.01 1017.29 1016.52 1015.72 1014.92 1014.14 1013.39 1012.68 1012.00 1011.32 1010.63 1009.90 1009.13
1021.36 1021.66 1021.98 1022.28 1022.53 1022.72 1022.84 1022.89 1022.88 1022.83 1022.75 1022.66 1022.56 1022.46 1022.35 1022.22 1022.05 1021.86 1021.64 1021.40 1021.14 1020.88 1020.62 1020.37 1020.12 1019.86 1019.57 1019.23 1018.82 1018.33 1017.75 1017.09 1016.37 1015.60 1014.82 1014.04 1013.28 1012.55 1011.84 1011.14 1010.43 1009.69 1008.90
1021.10 1021.44 1021.76 1022.06 1022.31 1022.49 1022.60 1022.64 1022.63 1022.58 1022.52 1022.45 1022.38 1022.31 1022.23 1022.12 1021.97 1021.78 1021.54 1021.27 1020.96 1020.64 1020.33 1020.02 1019.73 1019.44 1019.15 1018.82 1018.44 1018.00 1017.48 1016.88 1016.20 1015.48 1014.72 1013.95 1013.19 1012.45 1011.73 1011.01 1010.29 1009.55 1008.75
1020.81 1021.18 1021.52 1021.82 1022.07 1022.24 1022.33 1022.36 1022.34 1022.30 1022.24 1022.19 1022.15 1022.10 1022.05 1021.96 1021.83 1021.65 1021.41 1021.11 1020.77 1020.42 1020.06 1019.71 1019.38 1019.06 1018.75 1018.43 1018.08 1017.67 1017.19 1016.64 1016.01 1015.33 1014.60 1013.86 1013.11 1012.37 1011.65 1010.93 1010.21 1009.46 1008.67
1020.49 1020.89 1021.25 1021.57 1021.81 1021.97 1022.05 1022.07 1022.05 1022.00 1021.95 1021.91 1021.87 1021.85 1021.81 1021.74 1021.63 1021.46 1021.22 1020.93 1020.58 1020.20 1019.81 1019.43 1019.07 1018.73 1018.40 1018.08 1017.73 1017.34 1016.89 1016.37 1015.78 1015.14 1014.45 1013.73 1013.01 1012.29 1011.58 1010.87 1010.16 1009.42 1008.64
1020.13 1020.57 1020.96 1021.29 1021.54 1021.70 1021.79 1021.81 1021.78 1021.73 1021.67 1021.62 1021.59 1021.56 1021.53 1021.48 1021.38 1021.22 1021.00 1020.71 1020.36 1019.98 1019.58 1019.18 1018.80 1018.43 1018.08 1017.74 1017.38 1016.99 1016.55 1016.06 1015.50 1014.89 1014.23 1013.55 1012.86 1012.17 1011.49 1010.80 1010.11 1009.39 1008.62
1019.77 1020.23 1020.65 1021.00 1021.26 1021.44 1021.54 1021.56 1021.54 1021.48 1021.42 1021.36 1021.32 1021.28 1021.25 1021.19 1021.09 1020.95 1020.74 1020.47 1020.14 1019.76 1019.36 1018.96 1018.55 1018.17 1017.79 1017.42 1017.04 1016.64 1016.19 1015.70 1015.16 1014.58 1013.95 1013.31 1012.65 1012.00 1011.35 1010.69 1010.02 1009.32 1008.57
1019.40 1019.88 1020.32 1020.69 1020.98 1021.19 1021.30 1021.35 1021.33 1021.28 1021.21 1021.14 1021.08 1021.02 1020.96 1020.89 1020.80 1020.66 1020.46 1020.21 1019.90 1019.54 1019.15 1018.75 1018.33 1017.92 1017.52 1017.12 1016.71 1016.28 1015.82 1015.32 1014.79 1014.22 1013.63 1013.01 1012.39 1011.77 1011.15 1010.52 1009.87 1009.19 1008.45
1019.04 1019.53 1019.98 1020.38 1020.69 1020.93 1021.08 1021.15 1021.15 1021.11 1021.03 1020.95 1020.86 1020.78 1020.70 1020.61 1020.50 1020.36 1020.18 1019.94 1019.65 1019.32 1018.94 1018.55 1018.13 1017.70 1017.27 1016.84 1016.40 1015.94 1015.46 1014.95 1014.42 1013.86 1013.28 1012.69 1012.09 1011.50 1010.89 1010.28 1009.65 1008.97 1008.25
1018.72 1019.19 1019.65 1020.05 1020.40 1020.66 1020.84 1020.95 1020.98 1020.95 1020.88 1020.79 1020.68 1020.57 1020.46 1020.35 1020.22 1020.08 1019.90 1019.68 1019.41 1019.09 1018.74 1018.35 1017.94 1017.51 1017.06 1016.60 1016.13 1015.64 1015.14 1014.62 1014.08 1013.52 1012.95 1012.37 1011.79 1011.20 1010.60 1009.99 1009.36 1008.68 1007.96
1018.44 1018.88 1019.32 1019.73 1020.09 1020.38 1020.60 1020.73 1020.79 1020.79 1020.73 1020.63 1020.51 1020.38 1020.25 1020.11 1019.97 1019.81 1019.63 1019.42 1019.17 1018.88 1018.55 1018.18 1017.77 1017.34 1016.88 1016.41 1015.92 1015.41 1014.89 1014.36 1013.81 1013.24 1012.67 1012.09 1011.50 1010.91 1010.30 1009.67 1009.02 1008.33 1007.60
1018.21 1018.61 1019.02 1019.42 1019.78 1020.09 1020.34 1020.50 1020.59 1020.61 1020.57 1020.47 1020.35 1020.20 1020.05 1019.89 1019.73 1019.57 1019.39 1019.18 1018.95 1018.68 1018.37 1018.02 1017.63 1017.21 1016.76 1016.28 1015.78 1015.26 1014.73 1014.18 1013.62 1013.05 1012.46 1011.86 1011.26 1010.64 1010.00 1009.35 1008.66 1007.95 1007.20
1018.04 1018.38 1018.75 1019.13 1019.48 1019.80 1020.07 1020.26 1020.38 1020.42 1020.40 1020.31 1020.19 1020.04 1019.87 1019.70 1019.53 1019.36 1019.17 1018.98 1018.76 1018.51 1018.22 1017.89 1017.52 1017.12 1016.67 1016.20 1015.70 1015.18 1014.65 1014.09 1013.52 1012.93 1012.32 1011.70 1011.06 1010.41 1009.73 1009.03 1008.31 1007.57 1006.79
1017.91 1018.20 1018.52 1018.86 1019.21 1019.52 1019.80 1020.01 1020.15 1020.22 1020.21 1020.15 1020.04 1019.89 1019.72 1019.54 1019.36 1019.18 1019.00 1018.81 1018.60 1018.37 1018.10 1017.79 1017.45 1017.06 1016.63 1016.17 1015.69 1015.17 1014.62 1014.06 1013.47 1012.87 1012.23 1011.58 1010.90 1010.20 1009.48 1008.74 1007.98 1007.20 1006.41
1017.80 1018.03 1018.31 1018.62 1018.94 1019.25 1019.53 1019.76 1019.92 1020.01 1020.03 1019.99 1019.89 1019.75 1019.59 1019.42 1019.24 1019.06 1018.88 1018.69 1018.49 1018.27 1018.02 1017.73 1017.40 1017.03 1016.62 1016.17 1015.69 1015.18 1014.63 1014.06 1013.45 1012.82 1012.16 1011.47 1010.76 1010.01 1009.25 1008.47 1007.67 1006.87 1006.06
1017.66 1017.86 1018.10 1018.39 1018.69 1018.99 1019.27 1019.51 1019.69 1019.80 1019.85 1019.83 1019.75 1019.64 1019.49 1019.33 1019.16 1018.99 1018.81 1018.63 1018.43 1018.22 1017.98 1017.70 1017.38 1017.02 1016.62 1016.18 1015.70 1015.18 1014.62 1014.04 1013.41 1012.76 1012.07 1011.35 1010.59 1009.82 1009.02 1008.21 1007.39 1006.57 1005.75
1017.48 1017.65 1017.87 1018.14 1018.43 1018.73 1019.01 1019.26 1019.45 1019.59 1019.66 1019.67 1019.62 1019.53 1019.41 1019.27 1019.11 1018.95 1018.78 1018.61 1018.42 1018.20 1017.96 1017.69 1017.37 1017.01 1016.61 1016.16 1015.67 1015.14 1014.57 1013.97 1013.32 1012.64 1011.92 1011.17 1010.39 1009.59 1008.78 1007.95 1007.12 1006.30 1005.49
1017.22 1017.38 1017.60 1017.86 1018.15 1018.45 1018.74 1019.00 1019.21 1019.37 1019.47 1019.51 1019.49 1019.44 1019.34 1019.23 1019.09 1018.95 1018.79 1018.62 1018.43 1018.21 1017.97 1017.68 1017.35 1016.98 1016.57 1016.10 1015.60 1015.05 1014.46 1013.83 1013.16 1012.45 1011.72 1010.95 1010.15 1009.34 1008.52 1007.69 1006.87 1006.06 1005.27
1016.89 1017.06 1017.28 1017.55 1017.85 1018.15 1018.45 1018.72 1018.95 1019.13 1019.26 1019.34 1019.36 1019.34 1019.28 1019.20 1019.09 1018.96 1018.82 1018.65 1018.46 1018.23 1017.97 1017.67 1017.32 1016.93 1016.48 1015.99 1015.46 1014.88 1014.26 1013.61 1012.92 1012.20 1011.45 1010.67 1009.88 1009.07 1008.26 1007.45 1006.65 1005.86 1005.09
1016.50 1016.68 1016.92 1017.20 1017.51 1017.83 1018.14 1018.42 1018.68 1018.89 1019.05 1019.16 1019.22 1019.23 1019.21 1019.17 1019.09 1018.98 1018.84 1018.68 1018.48 1018.24 1017.96 1017.63 1017.25 1016.82 1016.35 1015.82 1015.26 1014.65 1014.01 1013.33 1012.62 1011.89 1011.14 1010.37 1009.59 1008.80 1008.01 1007.23 1006.46 1005.70 1004.95
1016.08 1016.28 1016.54 1016.84 1017.16 1017.49 1017.81 1018.12 1018.39 1018.63 1018.82 1018.96 1019.06 1019.12 1019.14 1019.12 1019.07 1018.98 1018.86 1018.69 1018.48 1018.22 1017.92 1017.55 1017.14 1016.67 1016.16 1015.59 1014.99 1014.35 1013.69 1013.00 1012.28 1011.55 1010.81 1010.06 1009.30 1008.54 1007.79 1007.04 1006.30 1005.57 1004.86
1015.65 1015.87 1016.15 1016.47 1016.81 1017.16 1017.49 1017.82 1018.11 1018.37 1018.59 1018.77 1018.90 1019.00 1019.05 1019.06 1019.04 1018.96 1018.85 1018.68 1018.45 1018.17 1017.83 1017.43 1016.97 1016.46 1015.90 1015.30 1014.67 1014.01 1013.33 1012.63 1011.92 1011.20 1010.48 1009.75 1009.03 1008.30 1007.59 1006.88 1006.17 1005.47 1004.78
1015.22 1015.47 1015.77 1016.11 1016.47 1016.83 1017.19 1017.53 1017.84 1018.13 1018.37 1018.58 1018.75 1018.88 1018.97 1019.00 1018.99 1018.93 1018.81 1018.62 1018.37 1018.06 1017.68 1017.24 1016.74 1016.19 1015.60 1014.96 1014.30 1013.62 1012.93 1012.23 1011.53 1010.84 1010.14 1009.45 1008.76 1008.08 1007.40 1006.73 1006.05 1005.37 1004.70
1014.81 1015.09 1015.41 1015.77 1016.15 1016.53 1016.91 1017.27 1017.61 1017.92 1018.19 1018.43 1018.63 1018.78 1018.89 1018.94 1018.94 1018.87 1018.74 1018.53 1018.26 1017.91 1017.49 1017.00 1016.46 1015.87 1015.23 1014.57 1013.89 1013.20 1012.50 1011.81 1011.13 1010.46 1009.79 1009.14 1008.49 1007.85 1007.20 1006.55 1005.90 1005.24 1004.57
1014.39 1014.70 1015.06 1015.45 1015.85 1016.26 1016.67 1017.05 1017.41 1017.75 1018.05 1018.31 1018.53 1018.71 1018.82 1018.89 1018.88 1018.80 1018.65 1018.41 1018.10 1017.71 1017.24 1016.71 1016.13 1015.49 1014.83 1014.14 1013.44 1012.74 1012.04 1011.36 1010.70 1010.05 1009.41 1008.79 1008.17 1007.56 1006.95 1006.32 1005.69 1005.04 1004.38
Thickness
5557 5559 5560 5562 5563 5564 5564 5564 5564 5563 5562 5560 5559 5558 5556 5555 5553 5550 5548 5547 5544 5541 5539 5536 5534 5531 5527 5523 5519 5515 5511 5507 5506 5510 5506 5503 5499 5495 5493 5490 5488 5486 5485
5548 5549 5551 5552 5553 5554 5555 5555 5556 5555 5554 5553 5551 5550 5548 5547 5545 5543 5540 5538 5536 5534 5531 5528 5525 5522 5518 5514 5510 5507 5502 5499 5495 5496 5496 5491 5487 5483 5481 5479 5477 5474 5473
5538 5540 5541 5542 5544 5545 5546 5547 5547 5546 5546 5544 5543 5541 5540 5538 5536 5534 5532 5530 5528 5526 5523 5520 5517 5513 5509 5506 5502 5497 5494 5490 5485 5482 5482 5480 5476 5473 5470 5469 5466 5464 5462
5529 5530 5532 5533 5534 5535 5537 5538 5538 5538 5537 5536 5534 5533 5531 5529 5528 5526 5524 5522 5519 5517 5514 5511 5508 5504 5501 5497 5493 5489 5484 5480 5475 5472 5470 5468 5465 5463 5459 5457 5457 5455 5453
5519 5521 5522 5523 5525 5527 5527 5528 5529 5529 5529 5527 5526 5523 5522 5520 5519 5517 5515 5513 5510 5508 5505 5502 5499 5495 5492 5488 5484 5480 5475 5470 5466 5462 5459 5457 5455 5453 5449 5446 5445 5446 5446
5509 5511 5512 5514 5516 5517 5518 5519 5520 5520 5519 5518 5516 5514 5512 5512 5511 5509 5507 5504 5502 5499 5496 5493 5490 5487 5483 5479 5475 5470 5466 5461 5456 5452 5450 5447 5446 5442 5440 5437 5435 5436 5437
5498 5501 5502 5504 5506 5507 5509 5510 5511 5510 5509 5508 5507 5505 5503 5502 5501 5500 5498 5496 5493 5490 5487 5484 5482 5478 5474 5470 5466 5462 5457 5453 5449 5444 5441 5439 5436 5434 5431 5429 5427 5425 5426
5488 5490 5492 5495 5496 5498 5499 5501 5501 5501 5500 5498 5498 5496 5494 5493 5492 5491 5489 5487 5484 5481 5478 5475 5472 5469 5465 5462 5458 5454 5450 5446 5442 5439 5435 5432 5429 5426 5423 5421 5419 5419 5419
5478 5480 5482 5485 5486 5488 5490 5491 5491 5491 5490 5489 5488 5487 5485 5484 5483 5482 5480 5477 5475 5472 5469 5467 5464 5460 5458 5455 5451 5447 5443 5440 5436 5432 5429 5425 5422 5420 5417 5415 5413 5412 5413
5469 5471 5473 5475 5477 5478 5479 5480 5481 5481 5481 5480 5479 5478 5476 5475 5474 5473 5471 5469 5466 5463 5460 5458 5455 5452 5449 5446 5442 5439 5436 5433 5430 5427 5423 5419 5416 5413 5410 5407 5404 5403 5403
5459 5461 5463 5465 5467 5468 5468 5469 5470 5471 5471 5470 5469 5468 5467 5466 5465 5463 5462 5460 5457 5454 5451 5449 5446 5443 5441 5438 5435 5431 5429 5426 5423 5419 5415 5412 5409 5406 5404 5401 5398 5396 5395
5449 5451 5453 5455 5457 5458 5458 5459 5460 5461 5461 5460 5459 5458 5457 5456 5455 5454 5453 5451 5449 5446 5443 5440 5438 5435 5433 5430 5428 5425 5422 5419 5415 5411 5407 5405 5402 5400 5398 5396 5394 5392 5391
5439 5441 5443 5445 5446 5448 5448 5449 5450 5451 5451 5450 5449 5448 5447 5446 5444 5444 5443 5441 5439 5436 5434 5432 5429 5427 5424 5422 5419 5417 5414 5410 5407 5403 5400 5397 5395 5393 5392 5391 5390 5390 5389
5429 5431 5433 5435 5437 5438 5438 5439 5440 5440 5441 5441 5440 5439 5437 5436 5434 5433 5432 5430 5429 5426 5424 5422 5420 5418 5415 5413 5411 5408 5405 5402 5399 5396 5393 5391 5390 5389 5387 5386 5386 5386 5386
5420 5422 5424 5426 5427 5427 5428 5428 5429 5430 5431 5431 5430 5429 5428 5426 5426 5425 5423 5421 5419 5417 5415 5413 5411 5408 5406 5404 5402 5400 5397 5395 5392 5390 5388 5386 5385 5384 5383 5382 5381 5381 5380
5411 5413 5414 5416 5416 5417 5417 5417 5419 5420 5420 5421 5421 5420 5419 5418 5417 5416 5415 5413 5411 5409 5407 5404 5402 5401 5399 5396 5394 5392 5390 5388 5386 5384 5382 5381 5379 5378 5378 5378 5377 5375 5375
5402 5403 5404 5405 5406 5406 5407 5408 5407 5408 5409 5410 5410 5410 5410 5409 5408 5407 5406 5405 5403 5401 5399 5396 5395 5393 5392 5390 5387 5385 5383 5381 5380 5379 5377 5376 5374 5374 5373 5373 5372 5371 5370
5391 5393 5395 5395 5396 5396 5397 5397 5398 5398 5398 5398 5399 5400 5400 5399 5399 5398 5397 5396 5394 5392 5390 5389 5388 5386 5385 5383 5381 5379 5377 5376 5375 5374 5372 5371 5370 5369 5369 5368 5367 5366 5366
5381 5383 5384 5385 5386 5387 5387 5388 5388 5388 5389 5389 5389 5389 5390 5390 5389 5389 5388 5387 5385 5384 5382 5381 5381 5379 5378 5377 5375 5373 5372 5371 5370 5369 5368 5366 5366 5365 5365 5364 5364 5363 5363
5371 5374 5376 5376 5377 5378 5378 5378 5379 5379 5380 5380 5380 5380 5380 5380 5380 5379 5379 5378 5377 5376 5375 5375 5374 5372 5372 5371 5369 5368 5367 5366 5365 5364 5363 5362 5361 5361 5361 5360 5360 5360 5359
5362 5364 5367 5367 5368 5369 5369 5370 5371 5371 5371 5371 5371 5372 5374 5373 5372 5372 5371 5370 5370 5369 5368 5368 5367 5366 5366 5365 5364 5363 5362 5362 5361 5360 5359 5358 5358 5357 5357 5357 5357 5357 5357
5353 5355 5357 5358 5359 5360 5361 5362 5363 5363 5363 5364 5364 5365 5366 5365 5364 5364 5364 5363 5363 5362 5362 5362 5361 5361 5360 5359 5359 5358 5358 5357 5357 5356 5355 5355 5355 5355 5355 5355 5355 5355 5355
5344 5346 5348 5350 5351 5353 5353 5354 5355 5356 5356 5356 5357 5357 5357 5357 5357 5357 5357 5356 5356 5356 5356 5356 5355 5355 5355 5354 5354 5354 5354 5354 5353 5352 5352 5353 5353 5353 5353 5353 5353 5353 5353
5336 5338 5340 5342 5343 5344 5345 5346 5347 5348 5348 5349 5349 5350 5350 5350 5350 5350 5350 5350 5350 5350 5350 5350 5350 5349 5349 5349 5349 5350 5350 5351 5351 5350 5350 5350 5350 5350 5351 5351 5351 5351 5352
5328 5330 5332 5334 5335 5336 5337 5338 5339 5340 5341 5341 5342 5343 5343 5343 5343 5343 5343 5344 5344 5344 5344 5344 5344 5344 5345 5345 5346 5346 5347 5348 5348 5348 5348 5348 5348 5348 5349 5349 5349 5349 5349
5320 5322 5324 5325 5327 5328 5329 5330 5331 5332 5333 5334 5335 5335 5336 5336 5336 5337 5337 5338 5338 5339 5339 5339 5339 5340 5340 5341 5342 5343 5344 5345 5345 5346 5346 5346 5346 5346 5347 5347 5347 5347 5348